Starlink 32558

operational
NORAD ID: 62169 Int'l Des: 2024-225 Owner: SPXS Country: US Constellation: starlink
LEOCIRCULAR

Über Starlink 32558

Beschreibung wird geladen...

Live-Position

3D-Globus wird geladen...

Nächste Überflüge

Höhenverlauf

Altitude vs Time

uPlot chart will show altitude changes over time

Zweizeiliger Elementsatz

1 62169U 24225G 25352.44317523 -.00761397 00000-0 -71180-1 0 9998
2 62169 70.0054 9.3635 0005427 149.8799 210.2672 14.96639879 57704
Epoch: 18. Dez. 2025 • Age: 12 hours

Aktueller Status

Höhe 599.6 km
Geschwindigkeit 7.56 km/s
Subsatellitenpunkt -52.38°S, 144.42°E
Startdatum 30. Nov. 2024
Alter 1 years
Typ internet

Technische Details

Klassifizierung Payload
Masse 730.00 kg
Trockenmasse 700.00 kg
Gesamtmasse 730.00 kg
Länge 0.30 m
Durchmesser 4.10 m
Spannweite 29.00 m
Form Box + pan
Hersteller SPXS
Bus-Typ Starlink V2M
Phasenstatus In Orbit
Besitzer/Staat SPXS/US

Große Konstellationen

Loading constellations...